Vertical_Velocity
1 -1 -0 -0 -2 -1 -2 -0 1 -1 1 -0 -2 -5 4 -2 -1 -3 -0 4 4 -4 -5 -4 1 -4 -2 1 2 8 6 -1 -13 7 -15 -10 11 -9 -17 14 4 -6 -3 -10 6
1 -0 -1 0 -3 0 2 0 -1 1 -2 -1 -0 -1 -4 -3 -3 -1 1 -6 1 0 -2 -2 2 -2 3 -1 -4 11 8 -9 -6 -2 0 -1 10 8 27 6 3 5 5 3 8
-1 -1 0 -2 -0 1 -1 0 -1 -0 -2 -2 -2 2 -6 -3 -4 1 -2 8 -6 -6 -3 -1 -2 1 2 2 -3 -6 -2 -7 -14 1 4 0 -4 3 3 1 -19 -16 -7 7 1
-3 -3 -4 0 1 -0 1 -0 0 -0 -2 -1 -1 0 -4 -4 7 -3 1 -3 3 3 -3 3 -2 2 4 2 -3 11 -2 3 -12 -3 3 -0 3 -3 6 -19 33 -10 5 3 4
-4 -3 -0 2 0 -1 -0 1 -1 -1 -3 -2 -0 -2 -3 -2 -1 0 2 -2 -2 0 0 1 4 3 5 3 3 9 -5 -0 -0 0 -3 4 -4 -7 -8 -14 -5 1 17 -2 -2
-1 -1 -2 -2 0 -1 0 -0 -1 -2 -2 -2 -0 -1 -1 3 -2 -1 -3 -5 4 3 -2 4 -3 -2 3 0 11 -4 1 -5 -4 -6 -1 14 -11 31 -19 -10 -7 9 6 -6 1
-1 -1 -1 -1 -0 0 -1 -1 -1 2 -2 -2 -1 -1 -1 -3 -1 -1 1 3 -6 -1 -5 -1 1 17 0 0 -8 -3 11 -1 -5 -6 -6 10 -4 -3 -12 -4 -6 -7 -11 20 -5
0 1 -3 -2 -0 0 -2 1 1 -1 -2 -1 -1 -3 -2 -3 -2 -4 0 -8 0 -2 3 -3 4 1 18 -5 1 13 16 8 -22 1 -19 30 -31 -14 6 7 -2 -2 -13 12 -2
1 -0 -1 -0 -0 -3 -1 2 -1 0 -3 -4 -1 -1 -2 -1 0 -3 6 -1 -5 -6 -3 8 6 -1 10 8 6 1 -3 3 -14 -1 1 22 -15 -10 2 4 -3 -3 -4 4 0
-1 -0 0 -1 -1 -5 -3 -1 1 0 -3 -0 -3 5 2 -6 -1 -0 -2 -2 5 -5 -1 2 3 3 4 9 -7 -5 4 -2 -1 -23 2 -3 -9 -5 -6 8 -1 -5 -3 -7 4
0 0 -1 -2 -1 -3 -8 -1 2 1 -3 -1 -1 -2 -4 -2 -2 4 -1 -10 2 5 4 -2 7 -1 -4 -1 -2 4 7 3 -10 -13 19 -2 -2 -7 -5 4 1 -3 -0 0 -0
-2 -0 1 -1 -3 -4 -2 -5 -3 -1 2 -1 -4 0 0 2 -4 -1 -5 3 4 1 -2 1 0 -3 1 1 5 3 3 -11 -11 -4 20 -2 -11 -6 -1 -6 -2 -1 -2 -1 5
-1 -2 -2 -3 -1 -1 -2 -4 0 -4 1 1 -2 -2 -4 8 0 -3 -4 -2 5 1 -0 8 -10 1 4 -2 6 -2 3 -3 5 -5 -4 11 -8 -2 -9 3 3 0 -2 -0 1
-0 -1 -2 -2 -2 -3 -1 -3 -2 -3 2 0 1 3 0 -3 2 1 4 6 -4 5 2 2 -1 4 -0 1 9 6 -3 3 2 9 -2 2 -7 -4 -1 -1 2 -1 0 -2 -6
-1 0 -3 -2 0 -2 2 -1 -1 -1 2 -10 -3 0 1 -4 2 -2 -3 -6 2 -1 10 -13 -2 -1 1 -3 4 -13 4 2 1 2 12 -9 11 -10 3 4 2 -0 -1 -0 4
1 0 -0 -1 -1 2 -1 -1 1 10 -1 -2 0 -2 -10 -5 -7 -10 0 -2 3 4 -2 4 -2 3 5 -2 5 -2 5 4 2 3 8 -12 4 3 2 7 -3 -3 -1 0 -2
-1 -3 -4 -0 1 2 2 -0 7 -4 -1 -6 0 -1 2 -3 -6 -1 -1 -6 1 -6 -6 -10 -1 -3 2 -1 -5 -6 5 1 9 9 -7 -1 7 10 2 2 6 4 -0 -1 -2
1 0 3 -2 4 2 -1 5 -10 1 -0 -3 1 -4 2 2 -4 -5 -3 -3 -2 -2 2 4 -10 -1 -1 7 11 -1 3 3 0 -0 -2 2 1 15 5 2 2 2 4 2 -1
-3 -3 -3 1 1 0 1 -6 4 1 2 3 -8 0 -2 -3 8 1 1 1 1 2 6 2 -6 -8 -2 0 4 -9 2 9 5 1 5 1 6 7 -3 -4 -3 -1 -3 -2 -1
-0 -2 -7 -7 -3 -3 -9 -0 0 0 1 0 2 2 1 -1 -1 -1 0 -0 -1 4 2 -5 -0 -0 2 -4 -4 -0 2 4 2 2 1 4 1 6 -6 -3 -2 -4 -0 -1 -1
-2 -1 -1 -6 -6 -14 -2 0 -0 -1 3 3 1 0 -1 2 5 -1 -4 -12 -0 -5 1 3 7 -20 -1 -2 5 -7 -4 -4 8 4 4 1 7 6 4 3 3 1 2 2 1
-2 1 -6 -11 -14 0 0 2 1 -2 -0 -0 3 2 1 0 0 1 0 2 2 8 1 1 3 1 5 1 -1 -1 4 2 6 -0 1 3 10 2 3 2 2 2 1 1 5
-2 -2 -0 -8 -2 -1 -2 -1 -0 0 -1 -0 -0 1 -0 1 3 3 -0 -5 1 1 3 -1 -1 -3 -3 11 2 -1 -1 2 0 2 2 6 11 0 -2 -3 -0 1 -1 1 -0
-1 -1 -1 -7 -2 -1 0 -1 -2 0 -1 0 -1 3 2 0 -0 -3 -2 -5 -1 1 2 1 0 4 6 8 3 -3 -3 -1 1 -2 2 5 2 -6 -3 0 -3 -4 -1 0 1
-3 -0 1 -2 -1 -0 1 1 -0 -1 -0 1 -0 1 1 1 -1 -0 -1 -7 -7 -0 -1 -1 1 2 -2 -0 -1 2 2 -0 -3 5 0 2 1 5 4 4 4 5 -1 -2 -2
1 -0 1 -0 -0 1 1 -2 1 -2 3 -3 3 -1 2 3 -1 -3 9 2 2 -5 0 -1 -2 0 -1 0 1 -0 -0 -0 -0 -1 -1 -1 2 7 0 1 -4 1 -1 -1 -0
0 -3 2 -2 0 2 -2 -2 -3 2 -5 -2 2 7 3 -7 2 -2 2 1 -1 3 -0 1 1 -0 -0 0 1 8 4 1 1 -0 5 0 5 0 -5 -1 2 0 0 2 1
Height
1511 1508 1504 1500 1496 1492 1488 1485 1484 1481 1480 1478 1476 1476 1475 1472 1470 1469 1469 1471 1469 1468 1467 1465 1465 1465 1465 1464 1464 1466 1458 1441 1432 1437 1434 1427 1421 1421 1425 1430 1427 1427 1428 1433 1439
1509 1505 1502 1498 1493 1489 1486 1483 1481 1479 1478 1477 1476 1473 1472 1470 1469 1469 1471 1469 1467 1466 1467 1466 1465 1465 1463 1461 1460 1457 1454 1438 1436 1435 1435 1435 1425 1420 1420 1417 1418 1423 1426 1428 1433
1506 1503 1499 1494 1490 1486 1483 1480 1478 1477 1475 1474 1473 1472 1469 1470 1470 1470 1469 1470 1467 1466 1465 1465 1464 1464 1460 1458 1456 1451 1443 1440 1441 1440 1443 1441 1437 1433 1428 1410 1410 1412 1418 1424 1427
1504 1500 1495 1491 1487 1484 1481 1478 1476 1474 1473 1471 1470 1469 1468 1469 1469 1468 1468 1467 1466 1465 1464 1463 1462 1461 1457 1454 1452 1450 1445 1444 1439 1440 1439 1435 1434 1433 1429 1422 1415 1413 1417 1421 1423
1502 1498 1493 1489 1485 1482 1479 1475 1473 1471 1469 1468 1467 1467 1468 1468 1467 1466 1466 1465 1464 1462 1461 1460 1458 1456 1451 1449 1448 1444 1443 1440 1436 1435 1432 1430 1426 1430 1421 1418 1413 1408 1409 1413 1417
1501 1496 1491 1487 1483 1480 1476 1473 1470 1468 1467 1466 1466 1466 1467 1467 1465 1464 1463 1462 1461 1458 1456 1455 1452 1451 1446 1445 1443 1440 1437 1434 1433 1430 1428 1424 1418 1424 1409 1414 1413 1406 1402 1403 1407
1499 1493 1488 1485 1481 1477 1474 1471 1467 1465 1465 1465 1465 1466 1467 1467 1463 1463 1462 1457 1455 1453 1451 1449 1448 1446 1442 1438 1435 1434 1430 1428 1424 1424 1421 1420 1399 1404 1404 1415 1412 1402 1399 1397 1399
1496 1490 1486 1483 1479 1475 1472 1467 1464 1463 1463 1463 1464 1465 1465 1464 1463 1461 1458 1452 1451 1449 1446 1442 1440 1438 1436 1434 1430 1427 1424 1420 1414 1417 1415 1418 1386 1395 1393 1397 1393 1395 1394 1393 1394
1493 1488 1485 1481 1476 1473 1469 1465 1462 1462 1463 1464 1465 1465 1464 1463 1461 1457 1452 1449 1445 1442 1439 1437 1436 1433 1432 1430 1425 1417 1417 1413 1405 1408 1405 1407 1390 1388 1385 1386 1388 1391 1393 1390 1389
1491 1488 1484 1479 1475 1471 1467 1464 1461 1462 1463 1463 1465 1467 1464 1462 1457 1452 1449 1446 1441 1437 1435 1434 1433 1428 1425 1425 1414 1408 1405 1401 1402 1399 1400 1400 1389 1386 1386 1387 1386 1389 1383 1382 1381
1491 1487 1482 1477 1473 1469 1465 1463 1467 1466 1465 1466 1467 1466 1464 1461 1455 1450 1447 1442 1438 1435 1430 1429 1429 1422 1418 1417 1415 1411 1405 1398 1392 1393 1396 1391 1385 1384 1381 1377 1374 1374 1375 1379 1378
1491 1487 1481 1476 1472 1467 1464 1463 1465 1467 1467 1466 1466 1464 1463 1460 1454 1450 1447 1443 1437 1430 1427 1424 1417 1415 1415 1413 1412 1409 1404 1394 1390 1389 1393 1384 1376 1373 1375 1370 1368 1369 1376 1372 1373
1490 1486 1479 1475 1470 1466 1463 1463 1462 1463 1465 1466 1465 1463 1461 1458 1454 1449 1448 1441 1433 1427 1423 1420 1412 1413 1413 1410 1408 1401 1398 1391 1387 1388 1385 1378 1365 1362 1363 1363 1366 1366 1369 1372 1369
1491 1485 1479 1474 1472 1467 1464 1462 1461 1462 1456 1465 1465 1463 1461 1453 1453 1451 1447 1444 1435 1429 1423 1415 1410 1409 1406 1405 1401 1396 1386 1387 1387 1388 1378 1364 1357 1334 1343 1349 1354 1357 1361 1363 1365
1490 1485 1479 1473 1471 1467 1466 1463 1462 1463 1444 1467 1464 1463 1462 1461 1459 1450 1449 1443 1437 1429 1430 1413 1408 1404 1402 1397 1398 1387 1384 1385 1381 1377 1377 1366 1371 1342 1332 1340 1358 1370 1367 1366 1363
1489 1486 1479 1474 1470 1467 1464 1463 1465 1457 1453 1467 1467 1465 1462 1459 1457 1454 1449 1446 1439 1432 1421 1412 1407 1406 1401 1399 1391 1385 1384 1381 1383 1381 1371 1354 1363 1365 1372 1383 1376 1379 1372 1371 1363
1490 1487 1480 1476 1472 1467 1464 1465 1457 1458 1473 1468 1470 1467 1466 1458 1454 1453 1448 1445 1443 1435 1422 1409 1402 1403 1402 1393 1380 1383 1380 1363 1368 1365 1350 1331 1355 1384 1389 1391 1394 1391 1384 1378 1371
1491 1488 1483 1477 1472 1467 1466 1466 1465 1481 1482 1478 1474 1469 1466 1462 1456 1454 1450 1445 1444 1444 1430 1421 1403 1402 1406 1406 1397 1390 1380 1363 1348 1342 1325 1331 1346 1386 1398 1398 1397 1397 1391 1383 1374
1488 1487 1483 1478 1472 1468 1468 1470 1482 1488 1487 1483 1474 1469 1466 1465 1466 1457 1451 1452 1450 1449 1448 1432 1407 1402 1408 1408 1407 1391 1369 1383 1359 1347 1327 1356 1386 1391 1398 1399 1399 1397 1395 1388 1381
1486 1485 1483 1479 1475 1471 1472 1486 1491 1490 1488 1485 1482 1479 1475 1464 1465 1462 1456 1453 1450 1448 1449 1437 1423 1401 1403 1406 1407 1408 1406 1375 1352 1342 1327 1356 1370 1388 1403 1404 1402 1399 1394 1391 1387
1485 1486 1485 1481 1476 1475 1483 1490 1490 1488 1488 1485 1482 1481 1477 1474 1469 1465 1457 1448 1449 1446 1444 1440 1434 1405 1403 1419 1421 1408 1409 1411 1402 1367 1333 1328 1392 1421 1419 1416 1411 1407 1404 1399 1393
1486 1485 1485 1481 1481 1486 1490 1494 1491 1487 1487 1485 1483 1480 1478 1474 1471 1468 1459 1454 1451 1449 1442 1437 1433 1416 1412 1426 1425 1424 1427 1422 1404 1375 1369 1356 1408 1427 1424 1421 1417 1413 1406 1402 1395
1489 1487 1485 1483 1486 1487 1491 1489 1488 1485 1485 1483 1480 1478 1479 1475 1476 1464 1459 1450 1451 1450 1445 1439 1428 1417 1398 1421 1423 1428 1429 1425 1413 1414 1398 1372 1407 1428 1427 1422 1418 1415 1410 1405 1399
1493 1490 1488 1486 1491 1492 1492 1487 1486 1483 1482 1481 1478 1477 1477 1472 1471 1464 1458 1451 1450 1448 1445 1443 1436 1434 1428 1426 1437 1437 1434 1427 1409 1404 1414 1419 1418 1429 1428 1425 1422 1420 1415 1409 1401
1496 1495 1494 1487 1486 1490 1491 1488 1483 1482 1480 1479 1475 1474 1474 1472 1466 1462 1456 1453 1448 1447 1446 1446 1438 1433 1428 1434 1438 1441 1440 1439 1429 1429 1421 1430 1428 1438 1436 1431 1426 1423 1417 1411 1404
1497 1496 1493 1489 1487 1487 1487 1482 1481 1478 1479 1474 1474 1468 1470 1468 1463 1459 1457 1455 1450 1446 1444 1446 1432 1438 1434 1432 1432 1438 1442 1440 1441 1440 1435 1432 1431 1440 1437 1431 1429 1423 1417 1413 1410
1494 1493 1490 1483 1484 1484 1477 1478 1476 1476 1469 1468 1467 1467 1463 1458 1456 1454 1451 1448 1448 1447 1444 1447 1443 1435 1419 1435 1430 1426 1450 1449 1452 1454 1449 1439 1444 1441 1435 1433 1430 1426 1421 1416 1412